SIRION PATHFINDER-2 (43759 NORAD) Tracking and Keplerian Element Data

This shows tracking and keplerian element data for the satellite.

Feedback or suggestion? Click here.




ElementValue
Catalog43759
NameSIRION PATHFINDER-2
Epoch Orbit33732
Epoch Day34.65100249
Epoch Year2025
RAAN90.6514
Inclination97.4969
Eccentricity0.0009373
Argument of Perigee211.9411
Mean Anonmoly148.125
Mean Motion15.07693039
Decay Rate8.283E-05
L11 43759U 18099B 25034.65100249 .00008283 00000+0 54617-3 0 9992
L22 43759 97.4969 90.6514 0009373 211.9411 148.1250 15.07693039337322



Live tracking and technical data element details for SIRION PATHFINDER-2 (NORAD 43759). SIRION PATHFINDER-2 can be tracked NOW for your location showing map with azimuth and elevation plus other details from your city location.







IsCatalogInMostPopularTable: catalog: 43759, numindb: 552
Update: records affected: 1



GetName: 43759 SIRION PATHFINDER-2

Hit Count: updated at: Sat, 17 May 2025 08:42:31 GMT